Weather History for Willmar, MN

Change the Weather History Date:

Sunday, November 24, 2013

  Actual Average (KLJF) Record (KLJF)
Temperature  
Mean Temperature 20 °F -  
Max Temperature 39 °F 35 °F 61 °F (1990)
Min Temperature 1 °F 15 °F -14 °F (1985)
Degree Days  
Heating Degree Days 45    
Moisture  
Dew Point 10 °F    
Average Humidity 57    
Maximum Humidity 78    
Minimum Humidity 33    
Precipitation  
Precipitation 0.00 in - - ()
Sea Level Pressure  
Sea Level Pressure 30.24 in    
Wind  
Wind Speed 7 mph (South)    
Max Wind Speed 16 mph    
Max Gust Speed 25 mph    
Visibility 10 miles    
Events      
Averages and records for this station are not official NWS values.
T = Trace of Precipitation, MM = Missing Value Source: NWS Daily Summary

Daily Weather History Graph

Daily Weather History Graph

Search for Another Location

Airport:

Trip Planner

Search our weather history database for the weather conditions in past years. The results will help you decide how hot, cold, wet, or windy it might be!

Date:

Astronomy

Nov. 24, 2013 Rise Set
Actual Time 7:30 AM CST 4:43 PM CST
Civil Twilight 6:58 AM CST 5:16 PM CST
Nautical Twilight 6:21 AM CST 5:52 PM CST
Astronomical Twilight 5:46 AM CST 6:27 PM CST
Moon 11:19 PM CST (11/24) 12:11 PM CST (11/24)
Length of Visible Light 10h 18m
Length of Day
9h 12m
Waning Gibbous, 60% of the Moon is Illuminated
Nov 24
Waning Gibbous
Nov 25
Last Quarter
Dec 2
New
Dec 9
First Quarter
Dec 17
Full

Hourly Weather History & Observations

Time (CST) Temp. Windchill Dew Point Humidity Pressure Visibility Wind Dir Wind Speed Gust Speed Precip Events Conditions
12:15 AM 1.4 °F -6.2 °F -4.0 °F 78% 30.66 in 10.0 mi SE 3.5 mph - N/A   Clear
12:35 AM 3.2 °F -4.2 °F -4.0 °F 72% 30.65 in 10.0 mi SE 3.5 mph - N/A   Clear
12:55 AM 3.2 °F -4.2 °F -2.2 °F 78% 30.64 in 10.0 mi SSE 3.5 mph - N/A   Clear
1:15 AM 3.2 °F -4.2 °F -4.0 °F 72% 30.63 in 10.0 mi SSE 3.5 mph - N/A   Clear
1:35 AM 3.2 °F -6.2 °F -2.2 °F 78% 30.61 in 10.0 mi SSE 4.6 mph - N/A   Clear
1:55 AM 3.2 °F -7.8 °F -2.2 °F 78% 30.60 in 10.0 mi SSE 5.8 mph - N/A   Clear
2:15 AM 3.2 °F -6.2 °F -2.2 °F 78% 30.59 in 10.0 mi SSE 4.6 mph - N/A   Clear
2:35 AM 5.0 °F -4.1 °F -2.2 °F 72% 30.57 in 10.0 mi SSE 4.6 mph - N/A   Clear
2:55 AM 5.0 °F -4.1 °F -2.2 °F 72% 30.56 in 10.0 mi SSE 4.6 mph - N/A   Clear
3:15 AM 6.8 °F -3.5 °F -0.4 °F 72% 30.55 in 10.0 mi SSE 5.8 mph - N/A   Clear
3:35 AM 6.8 °F -4.8 °F -0.4 °F 72% 30.54 in 10.0 mi SSE 6.9 mph - N/A   Clear
3:54 AM 6.8 °F -4.8 °F -0.4 °F 72% 30.53 in 10.0 mi SSE 6.9 mph - N/A   Clear
4:15 AM 6.8 °F -6.9 °F -0.4 °F 72% 30.52 in 10.0 mi SSE 9.2 mph - N/A   Clear
4:35 AM 8.6 °F -3.7 °F -0.4 °F 67% 30.51 in 10.0 mi SE 8.1 mph - N/A   Clear
4:55 AM 8.6 °F -4.7 °F 1.4 °F 73% 30.50 in 10.0 mi SSE 9.2 mph - N/A   Clear
5:15 AM 8.6 °F -4.7 °F 1.4 °F 73% 30.49 in 10.0 mi SSE 9.2 mph - N/A   Clear
5:35 AM 10.4 °F -4.1 °F 1.4 °F 67% 30.47 in 10.0 mi SSE 11.5 mph - N/A   Clear
5:55 AM 10.4 °F -4.1 °F 1.4 °F 67% 30.46 in 10.0 mi SSE 11.5 mph - N/A   Clear
6:15 AM 10.4 °F -3.3 °F 1.4 °F 67% 30.45 in 10.0 mi SSE 10.4 mph - N/A   Clear
6:35 AM 10.4 °F -5.4 °F 3.2 °F 73% 30.43 in 10.0 mi SSE 13.8 mph - N/A   Clear
6:55 AM 10.4 °F -4.8 °F 3.2 °F 73% 30.42 in 10.0 mi SSE 12.7 mph 18.4 mph N/A   Clear
7:15 AM 12.2 °F -1.0 °F 3.2 °F 67% 30.41 in 10.0 mi SSE 10.4 mph - N/A   Clear
7:35 AM 12.2 °F 0.7 °F 3.2 °F 67% 30.40 in 10.0 mi SSE 8.1 mph - N/A   Clear
7:55 AM 12.2 °F -2.5 °F 3.2 °F 67% 30.39 in 10.0 mi SSE 12.7 mph 19.6 mph N/A   Clear
8:15 AM 14.0 °F 2.9 °F 5.0 °F 67% 30.38 in 10.0 mi South 8.1 mph - N/A   Clear
8:35 AM 15.8 °F 5.1 °F 5.0 °F 62% 30.37 in 10.0 mi South 8.1 mph - N/A   Clear
8:55 AM 17.6 °F 7.3 °F 6.8 °F 63% 30.36 in 10.0 mi South 8.1 mph - N/A   Clear
9:15 AM 17.6 °F 6.4 °F 6.8 °F 63% 30.35 in 10.0 mi South 9.2 mph - N/A   Clear
9:36 AM 19.4 °F 9.5 °F 8.6 °F 63% 30.33 in 10.0 mi South 8.1 mph - N/A   Clear
9:55 AM 21.2 °F 12.6 °F 8.6 °F 58% 30.32 in 10.0 mi SSW 6.9 mph - N/A   Clear
10:15 AM 23.0 °F 12.4 °F 8.6 °F 54% 30.30 in 10.0 mi South 10.4 mph 18.4 mph N/A   Clear
10:36 AM 24.8 °F 14.6 °F 10.4 °F 54% 30.28 in 10.0 mi South 10.4 mph 19.6 mph N/A   Clear
10:55 AM 28.4 °F 19.7 °F 10.4 °F 47% 30.26 in 10.0 mi South 9.2 mph 18.4 mph N/A   Clear
11:15 AM 28.4 °F 17.5 °F 10.4 °F 47% 30.24 in 10.0 mi South 13.8 mph 20.7 mph N/A   Clear
11:35 AM 30.2 °F 22.6 °F 12.2 °F 47% 30.22 in 10.0 mi South 8.1 mph 24.2 mph N/A   Clear
11:55 AM 32.0 °F 23.6 °F 12.2 °F 44% 30.20 in 10.0 mi South 10.4 mph 16.1 mph N/A   Clear
12:15 PM 33.8 °F 25.3 °F 10.4 °F 38% 30.18 in 10.0 mi SSW 11.5 mph 21.9 mph N/A   Clear
12:35 PM 33.8 °F 25.3 °F 10.4 °F 38% 30.17 in 10.0 mi SSW 11.5 mph 19.6 mph N/A   Clear
12:55 PM 35.6 °F 29.2 °F 10.4 °F 35% 30.16 in 10.0 mi South 8.1 mph 19.6 mph N/A   Clear
1:15 PM 35.6 °F 28.0 °F 10.4 °F 35% 30.15 in 10.0 mi SSW 10.4 mph 23.0 mph N/A   Clear
1:35 PM 37.4 °F 30.3 °F 10.4 °F 33% 30.13 in 10.0 mi SSW 10.4 mph 25.3 mph N/A   Clear
1:55 PM 37.4 °F 29.8 °F 12.2 °F 36% 30.13 in 10.0 mi SSW 11.5 mph 24.2 mph N/A   Clear
2:15 PM 39.2 °F 33.6 °F 14.0 °F 36% 30.11 in 10.0 mi SSW 8.1 mph 18.4 mph N/A   Clear
2:35 PM 39.2 °F 32.0 °F 14.0 °F 36% 30.10 in 10.0 mi SSW 11.5 mph 25.3 mph N/A   Clear
2:55 PM 39.2 °F 30.5 °F 14.0 °F 36% 30.08 in 10.0 mi SSW 16.1 mph 24.2 mph N/A   Clear
3:15 PM 39.2 °F 31.2 °F 14.0 °F 36% 30.08 in 10.0 mi SSW 13.8 mph 20.7 mph N/A   Clear
3:35 PM 39.2 °F 33.6 °F 12.2 °F 33% 30.07 in 10.0 mi SSW 8.1 mph 21.9 mph N/A   Clear
3:55 PM 39.2 °F 33.0 °F 14.0 °F 36% 30.06 in 10.0 mi SSW 9.2 mph 17.3 mph N/A   Clear
4:15 PM 39.2 °F 34.2 °F 14.0 °F 36% 30.05 in 10.0 mi SSW 6.9 mph - N/A   Clear
4:35 PM 37.4 °F 32.8 °F 15.8 °F 41% 30.05 in 10.0 mi SSW 5.8 mph - N/A   Clear
4:55 PM 35.6 °F 29.9 °F 17.6 °F 48% 30.04 in 10.0 mi SSW 6.9 mph - N/A   Clear
5:15 PM 35.6 °F 29.2 °F 17.6 °F 48% 30.03 in 10.0 mi SSW 8.1 mph - N/A   Clear
5:35 PM 35.6 °F 29.2 °F 17.6 °F 48% 30.01 in 10.0 mi South 8.1 mph 16.1 mph N/A   Clear
5:55 PM 33.8 °F 26.4 °F 17.6 °F 52% 30.01 in 10.0 mi South 9.2 mph - N/A   Clear
6:15 PM 33.8 °F 25.8 °F 17.6 °F 52% 29.99 in 10.0 mi South 10.4 mph 20.7 mph N/A   Clear
6:35 PM 33.8 °F 26.4 °F 17.6 °F 52% 29.99 in 10.0 mi South 9.2 mph 17.3 mph N/A   Clear
6:55 PM 33.8 °F 27.0 °F 17.6 °F 52% 30.00 in 10.0 mi SSW 8.1 mph - N/A   Clear
7:15 PM 33.8 °F 27.7 °F 17.6 °F 52% 29.99 in 10.0 mi SSW 6.9 mph - N/A   Clear
7:36 PM 32.0 °F 26.4 °F 17.6 °F 55% 29.99 in 10.0 mi SSW 5.8 mph - N/A   Clear
7:55 PM 32.0 °F 26.4 °F 17.6 °F 55% 29.98 in 10.0 mi SSW 5.8 mph - N/A   Clear
8:15 PM 32.0 °F 25.6 °F 17.6 °F 55% 29.97 in 10.0 mi SSW 6.9 mph - N/A   Clear
8:36 PM 32.0 °F 26.4 °F 17.6 °F 55% 29.97 in 10.0 mi SSW 5.8 mph - N/A   Clear
8:55 PM 32.0 °F 24.8 °F 17.6 °F 55% 29.97 in 10.0 mi South 8.1 mph - N/A   Clear
9:15 PM 30.2 °F 24.3 °F 17.6 °F 60% 29.96 in 10.0 mi SSW 5.8 mph - N/A   Clear
9:35 PM 32.0 °F 25.6 °F 17.6 °F 55% 29.95 in 10.0 mi South 6.9 mph - N/A   Clear
9:55 PM 32.0 °F 26.4 °F 19.4 °F 60% 29.94 in 10.0 mi SSW 5.8 mph - N/A   Clear
10:15 PM 32.0 °F 25.6 °F 19.4 °F 60% 29.93 in 10.0 mi SSW 6.9 mph - N/A   Clear
10:35 PM 33.8 °F 27.7 °F 21.2 °F 60% 29.92 in 10.0 mi SSW 6.9 mph - N/A   Clear
10:55 PM 33.8 °F 24.8 °F 21.2 °F 60% 29.92 in 10.0 mi SSW 12.7 mph 17.3 mph N/A   Clear
11:15 PM 33.8 °F 24.3 °F 23.0 °F 65% 29.92 in 10.0 mi SSW 13.8 mph 21.9 mph N/A   Clear
11:35 PM 33.8 °F 23.9 °F 23.0 °F 65% 29.92 in 10.0 mi SSW 15.0 mph 19.6 mph N/A   Clear
11:55 PM 33.8 °F 23.9 °F 23.0 °F 65% 29.92 in 10.0 mi SW 15.0 mph 19.6 mph N/A   Clear